Time,TemperatureF,DewpointF,PressureIn,WindDirection,WindDirectionDegrees,WindSpeedMPH,WindSpeedGustMPH,Humidity,HourlyPrecipIn,Conditions,Clouds,dailyrainin,SolarRadiationWatts/m^2,SoftwareType,DateUTC
2013-01-29 00:09:00,26.5,25.0,30.20,SSE,161,2.0,4.0,92,0.00,,,0.00,0,weatherlink.com 1.10,2013-01-29 07:09:00,
2013-01-29 00:24:00,26.4,25.0,30.20,SSE,165,0.0,2.0,93,0.00,,,0.00,0,weatherlink.com 1.10,2013-01-29 07:24:00,
2013-01-29 00:39:00,26.3,25.0,30.20,SSE,165,0.0,2.0,93,0.00,,,0.00,0,weatherlink.com 1.10,2013-01-29 07:39:00,
2013-01-29 00:54:00,26.3,25.0,30.20,NE,44,3.0,3.0,93,0.00,,,0.00,0,weatherlink.com 1.10,2013-01-29 07:54:00,
2013-01-29 01:09:00,26.2,25.0,30.20,NNE,27,5.0,6.0,94,0.00,,,0.00,0,weatherlink.com 1.10,2013-01-29 08:09:00,
2013-01-29 01:24:00,26.1,25.0,30.20,North,355,3.0,5.0,94,0.00,,,0.00,0,weatherlink.com 1.10,2013-01-29 08:24:00,
2013-01-29 01:39:00,26.0,24.0,30.20,NNE,17,6.0,7.0,93,0.00,,,0.00,0,weatherlink.com 1.10,2013-01-29 08:39:00,
2013-01-29 01:54:00,26.2,24.0,30.20,NNE,22,4.0,6.0,90,0.00,,,0.00,0,weatherlink.com 1.10,2013-01-29 08:54:00,
2013-01-29 02:09:00,26.2,24.0,30.20,NNE,15,4.0,5.0,90,0.00,,,0.00,0,weatherlink.com 1.10,2013-01-29 09:09:00,
2013-01-29 02:24:00,26.0,23.0,30.20,NE,34,5.0,5.0,89,0.00,,,0.00,0,weatherlink.com 1.10,2013-01-29 09:24:00,
2013-01-29 02:39:00,26.1,23.0,30.20,NE,37,3.0,6.0,89,0.00,,,0.00,0,weatherlink.com 1.10,2013-01-29 09:39:00,
2013-01-29 02:54:00,26.1,23.0,30.20,NE,36,3.0,4.0,89,0.00,,,0.00,0,weatherlink.com 1.10,2013-01-29 09:54:00,
2013-01-29 03:09:00,25.9,23.0,30.21,NE,36,0.0,1.0,89,0.00,,,0.00,0,weatherlink.com 1.10,2013-01-29 10:09:00,
2013-01-29 03:24:00,25.7,23.0,30.21,NE,36,0.0,0.0,90,0.00,,,0.00,0,weatherlink.com 1.10,2013-01-29 10:24:00,
2013-01-29 03:39:00,25.7,24.0,30.22,NE,36,0.0,0.0,92,0.00,,,0.00,0,weatherlink.com 1.10,2013-01-29 10:39:00,
2013-01-29 03:54:00,25.7,24.0,30.22,NE,36,0.0,1.0,93,0.00,,,0.00,0,weatherlink.com 1.10,2013-01-29 10:54:00,
2013-01-29 04:09:00,25.7,24.0,30.23,NNE,30,6.0,7.0,93,0.00,,,0.00,0,weatherlink.com 1.10,2013-01-29 11:09:00,
2013-01-29 04:24:00,26.1,24.0,30.23,NNE,24,8.0,9.0,92,0.00,,,0.00,0,weatherlink.com 1.10,2013-01-29 11:24:00,
2013-01-29 04:39:00,26.3,24.0,30.23,NNE,24,10.0,10.0,91,0.00,,,0.00,0,weatherlink.com 1.10,2013-01-29 11:39:00,
2013-01-29 04:54:00,26.1,24.0,30.24,North,355,4.0,7.0,92,0.00,,,0.00,0,weatherlink.com 1.10,2013-01-29 11:54:00,
2013-01-29 05:09:00,25.8,24.0,30.25,NNE,17,2.0,4.0,93,0.00,,,0.00,0,weatherlink.com 1.10,2013-01-29 12:09:00,
2013-01-29 05:24:00,25.6,24.0,30.25,NNE,17,2.0,3.0,93,0.00,,,0.00,0,weatherlink.com 1.10,2013-01-29 12:24:00,
2013-01-29 05:39:00,25.4,24.0,30.25,NNE,17,2.0,3.0,94,0.00,,,0.00,0,weatherlink.com 1.10,2013-01-29 12:39:00,
2013-01-29 05:54:00,25.4,24.0,30.26,NNE,17,4.0,4.0,94,0.00,,,0.00,0,weatherlink.com 1.10,2013-01-29 12:54:00,
2013-01-29 06:10:00,25.4,24.0,30.27,NNE,15,5.0,6.0,94,0.00,,,0.00,0,weatherlink.com 1.10,2013-01-29 13:10:00,
2013-01-29 06:25:00,25.4,24.0,30.27,NNE,25,8.0,9.0,94,0.00,,,0.00,0,weatherlink.com 1.10,2013-01-29 13:25:00,
2013-01-29 06:40:00,25.4,24.0,30.28,North,355,5.0,9.0,94,0.00,,,0.00,0,weatherlink.com 1.10,2013-01-29 13:40:00,
2013-01-29 06:55:00,25.3,24.0,30.29,NNW,346,5.0,6.0,94,0.00,,,0.00,0,weatherlink.com 1.10,2013-01-29 13:55:00,
2013-01-29 07:10:00,25.3,24.0,30.30,NNW,342,6.0,7.0,94,0.00,,,0.00,0,weatherlink.com 1.10,2013-01-29 14:10:00,
2013-01-29 07:25:00,25.0,24.0,30.30,North,5,6.0,8.0,94,0.00,,,0.00,0,weatherlink.com 1.10,2013-01-29 14:25:00,
2013-01-29 07:40:00,25.0,24.0,30.31,North,360,6.0,8.0,94,0.00,,,0.00,0,weatherlink.com 1.10,2013-01-29 14:40:00,
2013-01-29 07:55:00,24.8,23.0,30.32,NNW,346,6.0,7.0,94,0.00,,,0.00,0,weatherlink.com 1.10,2013-01-29 14:55:00,
2013-01-29 08:10:00,24.8,23.0,30.32,NNW,347,5.0,7.0,94,0.00,,,0.00,0,weatherlink.com 1.10,2013-01-29 15:10:00,
2013-01-29 08:25:00,24.9,24.0,30.33,North,360,7.0,8.0,94,0.00,,,0.00,0,weatherlink.com 1.10,2013-01-29 15:25:00,
2013-01-29 08:40:00,25.0,24.0,30.34,North,355,5.0,8.0,94,0.00,,,0.00,5,weatherlink.com 1.10,2013-01-29 15:40:00,
2013-01-29 08:55:00,25.1,24.0,30.34,NNE,28,4.0,6.0,94,0.00,,,0.00,23,weatherlink.com 1.10,2013-01-29 15:55:00,
2013-01-29 09:10:00,-999.0,-99.9,30.35,North,-999,-999.0,-999.0,-999,0.00,,,0.00,,weatherlink.com 1.10,2013-01-29 16:10:00,
2013-01-29 09:25:00,-999.0,-99.9,30.35,North,-999,-999.0,-999.0,-999,0.00,,,0.00,,weatherlink.com 1.10,2013-01-29 16:25:00,
2013-01-29 09:40:00,25.4,24.0,30.36,NNE,22,7.0,7.0,94,0.00,,,0.00,23,weatherlink.com 1.10,2013-01-29 16:40:00,
2013-01-29 09:55:00,25.8,24.0,30.36,NNE,32,7.0,10.0,94,0.00,,,0.00,69,weatherlink.com 1.10,2013-01-29 16:55:00,
2013-01-29 10:10:00,25.6,24.0,30.38,NW,325,5.0,6.0,94,0.00,,,0.00,28,weatherlink.com 1.10,2013-01-29 17:10:00,
2013-01-29 10:25:00,25.9,24.0,30.38,NW,305,2.0,5.0,94,0.00,,,0.00,111,weatherlink.com 1.10,2013-01-29 17:25:00,
2013-01-29 10:40:00,26.0,25.0,30.39,NNW,331,6.0,7.0,94,0.00,,,0.00,63,weatherlink.com 1.10,2013-01-29 17:40:00,
2013-01-29 10:55:00,26.3,25.0,30.41,NNE,12,9.0,11.0,94,0.00,,,0.00,137,weatherlink.com 1.10,2013-01-29 17:55:00,
2013-01-29 11:10:00,26.3,25.0,30.41,NNE,28,11.0,13.0,94,0.00,,,0.00,97,weatherlink.com 1.10,2013-01-29 18:10:00,
2013-01-29 11:25:00,26.9,25.0,30.41,NNE,17,11.0,14.0,94,0.00,,,0.00,169,weatherlink.com 1.10,2013-01-29 18:25:00,
2013-01-29 11:40:00,28.4,26.0,30.42,NNE,16,9.0,15.0,90,0.00,,,0.00,287,weatherlink.com 1.10,2013-01-29 18:40:00,
2013-01-29 11:56:00,28.2,26.0,30.43,North,350,12.0,13.0,91,0.01,,,0.01,179,weatherlink.com 1.10,2013-01-29 18:56:00,
2013-01-29 12:11:00,27.5,25.0,30.43,NNE,19,15.0,17.0,91,0.01,,,0.01,192,weatherlink.com 1.10,2013-01-29 19:11:00,
2013-01-29 12:26:00,28.4,25.0,30.43,NNE,18,14.0,17.0,87,0.01,,,0.01,513,weatherlink.com 1.10,2013-01-29 19:26:00,
2013-01-29 12:41:00,28.8,25.0,30.44,North,355,10.0,15.0,87,0.01,,,0.01,545,weatherlink.com 1.10,2013-01-29 19:41:00,
2013-01-29 12:56:00,28.5,25.0,30.44,North,350,8.0,13.0,87,0.00,,,0.01,223,weatherlink.com 1.10,2013-01-29 19:56:00,
2013-01-29 13:11:00,28.1,25.0,30.45,WNW,300,10.0,11.0,88,0.00,,,0.01,181,weatherlink.com 1.10,2013-01-29 20:11:00,
2013-01-29 13:26:00,28.4,25.0,30.45,North,5,9.0,11.0,88,0.00,,,0.01,343,weatherlink.com 1.10,2013-01-29 20:26:00,
2013-01-29 13:41:00,28.2,25.0,30.45,NE,40,7.0,12.0,87,0.00,,,0.01,316,weatherlink.com 1.10,2013-01-29 20:41:00,
2013-01-29 13:56:00,29.8,25.0,30.45,NNE,15,9.0,12.0,82,0.01,,,0.02,566,weatherlink.com 1.10,2013-01-29 20:56:00,
2013-01-29 14:11:00,30.9,25.0,30.45,North,360,5.0,7.0,79,0.01,,,0.02,570,weatherlink.com 1.10,2013-01-29 21:11:00,
2013-01-29 14:26:00,31.0,25.0,30.46,North,355,10.0,13.0,77,0.02,,,0.03,211,weatherlink.com 1.10,2013-01-29 21:26:00,
2013-01-29 14:41:00,29.0,26.0,30.47,SSW,209,7.0,11.0,88,0.02,,,0.03,316,weatherlink.com 1.10,2013-01-29 21:41:00,
2013-01-29 14:56:00,28.9,26.0,30.48,ENE,59,2.0,9.0,88,0.01,,,0.03,142,weatherlink.com 1.10,2013-01-29 21:56:00,
2013-01-29 15:11:00,29.5,26.0,30.49,South,178,3.0,6.0,85,0.02,,,0.04,287,weatherlink.com 1.10,2013-01-29 22:11:00,
2013-01-29 15:26:00,28.8,26.0,30.49,SSW,202,7.0,10.0,88,0.01,,,0.04,373,weatherlink.com 1.10,2013-01-29 22:26:00,
2013-01-29 15:41:00,27.8,25.0,30.50,SSW,208,9.0,10.0,89,0.01,,,0.04,93,weatherlink.com 1.10,2013-01-29 22:41:00,
2013-01-29 15:56:00,27.5,25.0,30.51,South,177,4.0,8.0,90,0.01,,,0.04,46,weatherlink.com 1.10,2013-01-29 22:56:00,
2013-01-29 16:11:00,27.1,25.0,30.50,SE,140,4.0,6.0,92,0.00,,,0.04,63,weatherlink.com 1.10,2013-01-29 23:11:00,
2013-01-29 16:26:00,26.8,25.0,30.51,SSE,159,6.0,7.0,91,0.00,,,0.04,116,weatherlink.com 1.10,2013-01-29 23:26:00,
2013-01-29 16:41:00,26.6,24.0,30.52,SSE,159,4.0,6.0,91,0.00,,,0.04,53,weatherlink.com 1.10,2013-01-29 23:41:00,
2013-01-29 16:56:00,26.7,25.0,30.52,SSE,158,5.0,8.0,91,0.00,,,0.04,19,weatherlink.com 1.10,2013-01-29 23:56:00,
2013-01-29 17:11:00,26.9,25.0,30.52,SSE,154,5.0,6.0,91,0.00,,,0.04,11,weatherlink.com 1.10,2013-01-30 00:11:00,
2013-01-29 17:26:00,27.0,25.0,30.53,South,174,1.0,5.0,90,0.00,,,0.04,5,weatherlink.com 1.10,2013-01-30 00:26:00,
2013-01-29 17:41:00,27.1,24.0,30.52,SE,136,5.0,6.0,89,0.00,,,0.04,0,weatherlink.com 1.10,2013-01-30 00:41:00,
2013-01-29 17:56:00,27.4,24.0,30.53,SSE,152,8.0,9.0,86,0.00,,,0.04,0,weatherlink.com 1.10,2013-01-30 00:56:00,
2013-01-29 18:11:00,27.4,24.0,30.53,SSE,167,5.0,8.0,86,0.00,,,0.04,0,weatherlink.com 1.10,2013-01-30 01:11:00,
2013-01-29 18:26:00,27.4,24.0,30.53,SSE,163,10.0,12.0,88,0.00,,,0.04,0,weatherlink.com 1.10,2013-01-30 01:26:00,
2013-01-29 18:41:00,27.4,24.0,30.53,SSE,165,5.0,10.0,88,0.00,,,0.04,0,weatherlink.com 1.10,2013-01-30 01:41:00,
2013-01-29 18:56:00,27.4,25.0,30.53,SSE,159,8.0,10.0,89,0.00,,,0.04,0,weatherlink.com 1.10,2013-01-30 01:56:00,
2013-01-29 19:11:00,27.3,25.0,30.52,SE,140,8.0,11.0,89,0.00,,,0.04,0,weatherlink.com 1.10,2013-01-30 02:11:00,
2013-01-29 19:26:00,28.0,24.0,30.53,South,190,8.0,11.0,85,0.00,,,0.04,0,weatherlink.com 1.10,2013-01-30 02:26:00,
2013-01-29 19:41:00,28.5,24.0,30.54,NNE,13,5.0,12.0,83,0.00,,,0.04,0,weatherlink.com 1.10,2013-01-30 02:41:00,
2013-01-29 19:56:00,27.1,24.0,30.54,North,360,2.0,4.0,89,0.00,,,0.04,0,weatherlink.com 1.10,2013-01-30 02:56:00,
2013-01-29 20:11:00,27.1,25.0,30.54,NE,42,5.0,7.0,90,0.00,,,0.04,0,weatherlink.com 1.10,2013-01-30 03:11:00,
2013-01-29 20:26:00,27.1,25.0,30.54,North,11,7.0,10.0,92,0.00,,,0.04,0,weatherlink.com 1.10,2013-01-30 03:26:00,
2013-01-29 20:41:00,26.8,25.0,30.55,NNW,345,1.0,13.0,92,0.00,,,0.04,0,weatherlink.com 1.10,2013-01-30 03:41:00,
2013-01-29 20:56:00,26.6,25.0,30.55,NNW,327,3.0,4.0,94,0.00,,,0.04,0,weatherlink.com 1.10,2013-01-30 03:56:00,
2013-01-29 21:11:00,26.2,25.0,30.55,NNW,327,3.0,4.0,94,0.00,,,0.04,0,weatherlink.com 1.10,2013-01-30 04:11:00,
2013-01-29 21:26:00,26.1,25.0,30.54,NNE,12,2.0,5.0,94,0.00,,,0.04,0,weatherlink.com 1.10,2013-01-30 04:26:00,
2013-01-29 21:41:00,26.1,25.0,30.54,NNW,344,0.0,4.0,95,0.00,,,0.04,0,weatherlink.com 1.10,2013-01-30 04:41:00,
2013-01-29 21:56:00,26.1,25.0,30.53,NNW,344,0.0,0.0,95,0.00,,,0.04,0,weatherlink.com 1.10,2013-01-30 04:56:00,
2013-01-29 22:11:00,26.1,25.0,30.53,NNW,345,1.0,4.0,94,0.00,,,0.04,0,weatherlink.com 1.10,2013-01-30 05:11:00,
2013-01-29 22:26:00,26.0,25.0,30.52,NNW,345,0.0,0.0,94,0.00,,,0.04,0,weatherlink.com 1.10,2013-01-30 05:26:00,
2013-01-29 22:41:00,25.9,24.0,30.52,NNW,345,1.0,2.0,94,0.00,,,0.04,0,weatherlink.com 1.10,2013-01-30 05:41:00,
2013-01-29 22:56:00,25.8,24.0,30.52,NNW,345,0.0,0.0,94,0.00,,,0.04,0,weatherlink.com 1.10,2013-01-30 05:56:00,
2013-01-29 23:11:00,26.0,25.0,30.52,SE,146,4.0,5.0,94,0.00,,,0.04,0,weatherlink.com 1.10,2013-01-30 06:11:00,
2013-01-29 23:26:00,26.9,25.0,30.51,SSE,153,4.0,8.0,93,0.00,,,0.04,0,weatherlink.com 1.10,2013-01-30 06:26:00,
2013-01-29 23:41:00,26.3,25.0,30.52,SE,139,0.0,4.0,93,0.00,,,0.04,0,weatherlink.com 1.10,2013-01-30 06:41:00,
2013-01-29 23:56:00,26.8,25.0,30.51,South,169,3.0,6.0,93,0.00,,,0.04,0,weatherlink.com 1.10,2013-01-30 06:56:00,